This is the latest recevied weather packets stored in our database for station/object K0QED. If no packets are shown the sender has not sent any weather packets the latest 10 day(s).
| Time | Temp. | Humidity | Pressure | Rain* | Wind** | Luminosity | Snow |
|---|---|---|---|---|---|---|---|
| 1788108331 | 21.11° C | 53% | 1026.4 hPa | 0 mm | - | 249 W/m² | - |
| 1788108027 | 21.11° C | 54% | 1026.4 hPa | 0 mm | - | 239 W/m² | - |
| 1788107723 | 20.56° C | 55% | 1026.2 hPa | 0 mm | - | 206 W/m² | - |
| 1788107423 | 20.56° C | 54% | 1026.1 hPa | 0 mm | - | 224 W/m² | - |
| 1788107118 | 20° C | 56% | 1026.2 hPa | 0 mm | - | 244 W/m² | - |
| 1788106813 | 19.44° C | 56% | 1026.2 hPa | 0 mm | - | 186 W/m² | - |
| 1788106522 | 19.44° C | 58% | 1026.2 hPa | 0 mm | - | 157 W/m² | - |
| 1788106202 | 19.44° C | 58% | 1026.2 hPa | 0 mm | - | 133 W/m² | - |
| 1788105899 | 18.89° C | 59% | 1026.2 hPa | 0 mm | - | 123 W/m² | - |
| 1788105593 | 18.89° C | 59% | 1026.1 hPa | 0 mm | - | 121 W/m² | - |
| 1788105290 | 18.33° C | 59% | 1026.2 hPa | 0 mm | - | 120 W/m² | - |
| 1788104985 | 18.33° C | 62% | 1026.2 hPa | 0 mm | - | 102 W/m² | - |
| 1788104680 | 18.33° C | 63% | 1025.9 hPa | 0 mm | - | 94 W/m² | - |
| 1788104376 | 18.33° C | 63% | 1025.9 hPa | 0 mm | - | 89 W/m² | - |
| 1788104072 | 18.33° C | 63% | 1025.7 hPa | 0 mm | - | 86 W/m² | - |
| 1788103771 | 18.33° C | 61% | 1025.9 hPa | 0 mm | - | 83 W/m² | - |
| 1788103467 | 18.33° C | 62% | 1026.1 hPa | 0 mm | - | 77 W/m² | - |
| 1788103166 | 18.33° C | 60% | 1026 hPa | 0 mm | - | 78 W/m² | - |
| 1788102866 | 18.33° C | 61% | 1026 hPa | 0 mm | - | 91 W/m² | - |
| 1788102561 | 18.33° C | 61% | 1026.1 hPa | 0 mm | - | 102 W/m² | - |
| 1788102260 | 17.78° C | 62% | 1026.2 hPa | 0 mm | - | 117 W/m² | - |
| 1788101954 | 17.78° C | 62% | 1026.1 hPa | 0 mm | - | 113 W/m² | - |
| 1788101649 | 17.78° C | 62% | 1026.2 hPa | 0 mm | - | 103 W/m² | - |
| 1788101344 | 17.78° C | 62% | 1025.9 hPa | 0 mm | - | 100 W/m² | - |
| 1788101041 | 17.78° C | 63% | 1026.2 hPa | 0 mm | - | 90 W/m² | - |
* Rain latest hour (hover to see other rain measurements)
** Current wind speed in m/s (hover to see current wind gust speed)